Hourly Data Report for October 18, 2016

All times are specified in Local Standard Time (LST). Add 1 hour to adjust for Daylight Saving Time where and when it is observed.

BAKER LAKE A
NUNAVUT

64°17'56.000" N
96°04'40.000" W
18.60 m
2300503
71926
YBK

Download Data

Hourly Data (October 2016)
Hourly Data Report for October 18, 2016
Temp Definition
°C
Dew Point Temp Definition
°C
Rel Hum Definition
%
Wind Dir Definition
10's deg

Wind Spd Definition
km/h
Visibility Definition
km
Stn Press Definition
kPa
Hmdx Definition


Wind Chill Definition


Weather Definition


TIME
00:00 Legend Double Dagger -4.7 -6.1 90 7 22 24.1 101.88   -12 Snow
01:00 Legend Double Dagger -4.8 -6.2 90 6 17 24.1 101.88   -11 Snow
02:00 Legend Double Dagger -4.4 -5.8 90 6 26 24.1 101.86   -12 Snow
03:00 Legend Double Dagger -4.3 -5.6 91 5 18 24.1 101.89   -10 Snow
04:00 Legend Double Dagger -4.2 -5.5 91 5 15 24.1 101.91   -10 Snow
05:00 Legend Double Dagger -4.2 -5.2 93 6 21 24.1 101.91   -11 Snow
06:00 Legend Double Dagger -4.0 -5.1 92 6 19 24.1 101.93   -10 Snow
07:00 Legend Double Dagger -3.7 -4.7 93 6 16 24.1 101.95   -9 LegendNANA
08:00 Legend Double Dagger -3.3 -4.1 94 8 21 8.1 101.93   -10 Fog
09:00 Legend Double Dagger -2.8 -3.6 94 8 22 9.7 101.92   -9 Snow,Fog
10:00 Legend Double Dagger -2.7 -3.5 94 7 20 6.4 101.91   -9 Snow,Fog
11:00 Legend Double Dagger -1.2 -2.3 92 10 21 24.1 101.91   -7 LegendNANA
12:00 Legend Double Dagger -1.5 -2.6 92 9 21 24.1 101.92   -7 Cloudy
13:00 Legend Double Dagger -1.6 -2.6 93 14 27 24.1 101.93   -8 LegendNANA
14:00 Legend Double Dagger -1.7 -2.8 92 12 26 24.1 101.96   -8 Snow
15:00 Legend Double Dagger -1.6 -2.7 92 13 23 24.1 101.98   -8 Snow
16:00 Legend Double Dagger -2.0 -2.8 94 13 18 24.1 101.99   -7 LegendNANA
17:00 Legend Double Dagger -1.7 -2.8 92 13 23 24.1 102.00   -8 LegendNANA
18:00 Legend Double Dagger -1.9 -2.9 93 14 21 24.1 102.01   -8 Cloudy
19:00 Legend Double Dagger -1.6 -2.9 91 13 25 24.1 101.99   -8 LegendNANA
20:00 Legend Double Dagger -2.1 -3.1 93 14 25 24.1 102.01   -9 LegendNANA
21:00 Legend Double Dagger -2.7 -3.4 95 14 30 24.1 101.99   -10 Cloudy
22:00 Legend Double Dagger -2.6 -3.6 93 14 28 16.1 101.99   -10 LegendNANA
23:00 Legend Double Dagger -2.8 -3.8 93 15 23 24.1 101.96   -9 LegendNANA

Notes on Data Quality.

Legend

  • E = Estimated
  • M = Missing
  • NA = Not Available
  • ‡ = Partner data that is not subject to review by the National Climate Archives
Date modified: